Date String (YYYY-MM-DD hh:mm:ss) UTC,Instrument flags,Ambient pressure (hPa),Sample flow (lpm),Bypass flow (lpm),Sample temperature (°C),Ambient temperature (°C),ASC tube jacket temperature (°C),LED temperature (°C),Box temperature (°C),Sample RH (%),Span deviation,Mass concentration (μg/m³),Mass concentration (μg/m³),Mass concentration (μg/m³)
DateTimeUTC,F1_M11,P_M11,Q1_M11,Q2_M11,T1_M11,T2_M11,T3_M11,T4_M11,T5_M11,U1_M11,ZSPAN_M11,X0_M11,X2_M11,X1_M11
2022-10-23 01:00:00,,0809.1,5.00,0.00,29.7,28.3,00.0,38.5,31.6,08.1,0000.0,0008.63,0003.15,0002.07
2022-10-23 01:01:00,,0809.1,5.00,0.00,29.7,28.4,00.0,38.5,31.6,08.1,0000.0,0008.46,0003.05,0002.00
2022-10-23 01:02:00,,0809.1,4.99,0.00,29.7,28.4,00.0,38.5,31.7,08.1,0000.0,0008.72,0002.86,0001.92
2022-10-23 01:03:00,,0809.0,5.01,0.00,29.7,28.5,00.0,38.5,31.7,08.0,0000.0,0008.61,0002.76,0001.86
2022-10-23 01:04:00,,0809.1,4.98,0.00,29.8,28.5,00.0,38.5,31.7,08.0,0000.0,0008.07,0002.65,0001.79
2022-10-23 01:05:00,,0809.0,5.00,0.00,29.8,28.5,00.0,38.6,31.8,08.0,0000.0,0007.74,0002.59,0001.72
2022-10-23 01:06:00,,0809.0,5.01,0.00,29.8,28.6,00.0,38.6,31.8,08.0,0000.0,0007.53,0002.54,0001.67
2022-10-23 01:07:00,,0809.0,5.01,0.00,29.8,28.6,00.0,38.6,31.7,08.0,0000.0,0007.58,0002.49,0001.60
2022-10-23 01:08:00,,0809.0,5.00,0.00,29.9,28.6,00.0,38.6,31.7,08.0,0000.0,0007.77,0002.45,0001.57
2022-10-23 01:09:00,,0809.0,5.00,0.00,29.9,28.6,00.0,38.6,31.8,07.9,0000.0,0007.67,0002.40,0001.55
2022-10-23 01:10:00,,0809.0,5.00,0.00,29.9,28.6,00.0,38.6,31.8,07.9,0000.0,0007.77,0002.41,0001.52
2022-10-23 01:11:00,,0809.0,5.00,0.00,29.9,28.7,00.0,38.7,31.9,07.9,0000.0,0008.03,0002.47,0001.52
2022-10-23 01:12:00,,0809.0,4.98,0.00,29.9,27.6,00.0,38.6,31.8,08.0,0000.0,0008.01,0002.50,0001.51
2022-10-23 01:13:00,,0809.0,5.02,0.00,29.9,26.4,00.0,38.6,31.7,07.9,0000.0,0007.54,0002.47,0001.50
2022-10-23 01:14:00,,0809.0,4.99,0.00,29.8,26.3,00.0,38.5,31.6,07.9,0000.0,0006.79,0002.40,0001.47
2022-10-23 01:15:00,,0809.0,5.01,0.00,29.7,26.5,00.0,38.5,31.4,08.0,0000.0,0005.94,0002.31,0001.45
2022-10-23 01:16:00,,0809.0,5.00,0.00,29.7,26.8,00.0,38.5,31.4,08.0,0000.0,0005.70,0002.25,0001.43
2022-10-23 01:17:00,,0809.0,5.00,0.00,29.6,27.1,00.0,38.5,31.4,08.0,0000.0,0007.01,0002.22,0001.41
2022-10-23 01:18:00,,0809.0,4.99,0.00,29.6,27.4,00.0,38.5,31.4,08.0,0000.0,0007.06,0002.20,0001.40
2022-10-23 01:19:00,,0809.0,5.00,0.00,29.6,27.6,00.0,38.5,31.4,08.1,0000.0,0006.58,0002.20,0001.39
2022-10-23 01:20:00,,0809.0,5.02,0.00,29.6,27.8,00.0,38.5,31.4,08.1,0000.0,0006.70,0002.25,0001.37
2022-10-23 01:21:00,,0809.0,5.00,0.00,29.6,27.9,00.0,38.5,31.4,08.1,0000.0,0006.38,0002.20,0001.37
2022-10-23 01:22:00,,0809.0,4.99,0.00,29.6,28.0,00.0,38.5,31.4,08.1,0000.0,0005.65,0002.15,0001.37
2022-10-23 01:23:00,,0809.0,5.01,0.00,29.6,28.1,00.0,38.5,31.5,08.1,0000.0,0005.68,0002.12,0001.37
2022-10-23 01:24:00,,0809.0,5.01,0.00,29.6,28.2,00.0,38.5,31.5,08.1,0000.0,0005.97,0002.13,0001.37
2022-10-23 01:25:00,,0809.1,4.98,0.00,29.6,28.2,00.0,38.5,31.5,08.1,0000.0,0006.21,0002.14,0001.37
2022-10-23 01:26:00,,0809.1,5.01,0.00,29.7,28.3,00.0,38.5,31.6,08.1,0000.0,0006.77,0002.16,0001.38
2022-10-23 01:27:00,,0809.1,4.99,0.00,29.7,28.4,00.0,38.5,31.6,08.0,0000.0,0007.34,0002.15,0001.38
2022-10-23 01:28:00,,0809.1,5.01,0.00,29.7,28.4,00.0,38.5,31.6,08.0,0000.0,0006.18,0002.15,0001.38
2022-10-23 01:29:00,,0809.1,5.02,0.00,29.7,28.5,00.0,38.5,31.7,08.0,0000.0,0006.13,0002.13,0001.39
2022-10-23 01:30:00,,0809.1,4.99,0.00,29.8,28.5,00.0,38.5,31.7,07.9,0000.0,0006.45,0002.15,0001.40
2022-10-23 01:31:00,,0809.1,5.01,0.00,29.8,28.5,00.0,38.6,31.7,07.9,0000.0,0006.41,0002.14,0001.41
2022-10-23 01:32:00,,0809.1,5.00,0.00,29.8,28.6,00.0,38.6,31.7,07.9,0000.0,0006.52,0002.13,0001.40
2022-10-23 01:33:00,,0809.1,5.00,0.00,29.8,28.6,00.0,38.6,31.7,07.8,0000.0,0006.58,0002.14,0001.39
2022-10-23 01:34:00,,0809.1,4.99,0.00,29.8,28.6,00.0,38.6,31.8,07.8,0000.0,0006.69,0002.18,0001.38
2022-10-23 01:35:00,,0809.1,5.00,0.00,29.9,28.6,00.0,38.6,31.8,07.8,0000.0,0006.58,0002.18,0001.37
2022-10-23 01:36:00,,0809.1,5.01,0.00,29.9,28.7,00.0,38.6,31.8,07.8,0000.0,0006.18,0002.16,0001.37
2022-10-23 01:37:00,,0809.1,4.99,0.00,29.9,28.7,00.0,38.7,31.8,07.8,0000.0,0005.76,0002.17,0001.36
2022-10-23 01:38:00,,0809.1,5.00,0.00,29.9,28.7,00.0,38.7,31.9,07.8,0000.0,0005.25,0002.19,0001.35
2022-10-23 01:39:00,,0809.0,5.01,0.00,29.9,28.7,00.0,38.7,31.9,07.8,0000.0,0005.24,0002.16,0001.34
2022-10-23 01:40:00,,0809.0,5.01,0.00,30.0,28.7,00.0,38.7,31.9,07.8,0000.0,0004.75,0002.15,0001.33
2022-10-23 01:41:00,,0808.9,4.98,0.00,30.0,28.8,00.0,38.7,31.9,07.8,0000.0,0004.38,0002.12,0001.31
2022-10-23 01:42:00,,0809.0,5.00,0.00,30.0,28.8,00.0,38.7,31.9,07.8,0000.0,0004.77,0002.19,0001.31
2022-10-23 01:43:00,,0809.0,5.00,0.00,30.0,28.3,00.0,38.7,31.9,07.7,0000.0,0005.78,0002.18,0001.31
2022-10-23 01:44:00,,0809.0,5.01,0.00,30.0,26.8,00.0,38.7,31.8,07.8,0000.0,0007.16,0002.17,0001.31
2022-10-23 01:45:00,,0809.0,5.00,0.00,30.0,26.2,00.0,38.6,31.7,07.8,0000.0,0007.32,0002.13,0001.30
2022-10-23 01:46:00,,0808.9,4.99,0.00,29.9,26.4,00.0,38.6,31.4,07.9,0000.0,0007.36,0002.13,0001.30
2022-10-23 01:47:00,,0808.9,5.00,0.00,29.8,26.7,00.0,38.6,31.4,07.9,0000.0,0007.91,0002.17,0001.30
2022-10-23 01:48:00,,0808.9,5.01,0.00,29.7,27.1,00.0,38.6,31.4,08.0,0000.0,0007.93,0002.17,0001.30
2022-10-23 01:49:00,,0808.9,4.98,0.00,29.7,27.4,00.0,38.6,31.4,08.0,0000.0,0007.92,0002.13,0001.31
2022-10-23 01:50:00,,0808.9,5.01,0.00,29.7,27.6,00.0,38.5,31.4,08.0,0000.0,0008.51,0002.13,0001.31
2022-10-23 01:51:00,,0808.8,5.00,0.00,29.7,27.7,00.0,38.5,31.4,08.0,0000.0,0008.56,0002.16,0001.31
2022-10-23 01:52:00,,0808.8,5.00,0.00,29.7,27.9,00.0,38.5,31.5,08.1,0000.0,0008.79,0002.21,0001.32
2022-10-23 01:53:00,,0808.8,5.00,0.00,29.7,28.0,00.0,38.5,31.4,08.1,0000.0,0008.98,0002.14,0001.32
2022-10-23 01:54:00,,0808.8,5.00,0.00,29.7,28.1,00.0,38.5,31.5,08.1,0000.0,0008.67,0002.13,0001.32
2022-10-23 01:55:00,,0808.8,5.01,0.00,29.7,28.1,00.0,38.5,31.5,08.1,0000.0,0007.95,0002.14,0001.32
2022-10-23 01:56:00,,0808.7,5.00,0.00,29.7,28.2,00.0,38.5,31.5,08.0,0000.0,0007.75,0002.15,0001.31
2022-10-23 01:57:00,,0808.8,4.98,0.00,29.7,28.2,00.0,38.6,31.6,07.9,0000.0,0007.63,0002.13,0001.31
2022-10-23 01:58:00,,0808.8,5.01,0.00,29.7,28.3,00.0,38.6,31.6,07.9,0000.0,0007.12,0002.10,0001.31
2022-10-23 01:59:00,,0808.8,5.00,0.00,29.7,28.3,00.0,38.6,31.6,07.8,0000.0,0007.30,0002.13,0001.31
